Погода в Усть-Киране

Россия / Республика Бурятия     50°24′56″N   106°48′38″E
темп.,
°C
ветер,
м/с
пор.,
м/с
влажн.,
%
обл.,
%
осадки,
мм/ч
давл.,
гПа
погр.,
м
9 марта, вт
вт923:00−8ссв11870 0.0 102521
02:00−9ююв11915 0.0 102521
05:00−10ю22880 0.0 102321
08:00−10ю22880 0.0 102224
11:00−4ю35786 0.0 1018260
14:000ююз367836 0.0 1016349
17:00+1сз247698 0.0 1017158
20:00−5сз238288 0.0 102221
10 марта, ср
ср1023:00−7сз228414 0.0 102621
02:00−8сз118412 0.0 102921
05:00−9юв11852 0.0 103021
08:00−9зсз11855 0.0 103121
11:00−4всв11760 0.0 1029234
14:00−1ююв12760 0.0 1026279
17:00−1ю12800 0.0 1024134
20:00−5ююз12840 0.0 102521
11 марта, чт
чт1123:00−6ююз12870 0.0 102521
02:00−8ююз11890 0.0 102521
05:00−8ююз128731 0.0 102621
08:00−8ю128715 0.0 102721
11:00−3ю23760 0.0 1025255
14:000ююз35760 0.0 1023316
17:00+1ююз34780 0.0 1022206
20:00−3ю33780 0.0 102431
12 марта, пт
пт1223:00−4ю34780 0.0 102452
02:00−5ю44790 0.0 102356
05:00−6ююз34780 0.0 102342
08:00−6ю35780 0.0 102297
11:00+1ю4106318 0.0 1018362
14:00+6ююз6135559 0.0 1016815
17:00+3зюз3862100 0.1 1016256
20:00−3ссз2281100 0.1 101821
13 марта, сб
сб1323:00−5юз018133 0.0 101921
02:00−5ю228058 0.0 101721
05:00−4ююз338096 0.0 101436
08:00−5ююз347665 0.0 101256
11:00+1ююз475957 0.0 1008286
14:00+8ююз5104773 0.0 1003541
17:00+5сз4756100 0.0 1002161
20:00−2с122064100 0.0 1009839